Simultaneous Nadir Overpasses (SNOs) Predictions

Prediction of SNOs between METOP-C and LANDSAT-8 Satellite Orbit:

Table of predicted SNOs for the next 14.0 days since TLE Epoch: 4/22/2023
Index Date (METOP-C) Time (METOP-C) Lat,Lon (METOP-C) SZA (METOP-C ) Date (LANDSAT-8) Time (LANDSAT-8) Lat,Lon (LANDSAT-8) SZA (LANDSAT-8 ) Distance(km) Time Diff (sec)
1 04/24/2023 22:14:26 81.12,-114.49 70.18 04/24/2023 22:14:44 81.12,-114.52 70.19 0.41 18
2 04/24/2023 23:05:04 -81.14, 53.61 109.74 04/24/2023 23:04:10 -81.14, 53.45 109.78 2.79 54
3 04/27/2023 17:48:48 81.12, -48.03 69.30 04/27/2023 17:49:00 81.12, -48.10 69.29 1.28 12
4 04/27/2023 18:39:26 -81.14, 120.07 110.62 04/27/2023 18:38:26 -81.14, 119.89 110.67 3.05 60
5 04/30/2023 13:23:10 81.12, 18.33 68.43 04/30/2023 13:23:16 81.11, 18.30 68.43 0.52 6
6 04/30/2023 14:13:48 -81.14,-173.57 111.49 04/30/2023 14:12:42 -81.14,-173.68 111.53 1.80 66
7 05/03/2023 08:07:26 -80.41, -95.15 114.14 05/03/2023 08:08:40 -80.12, -94.06 114.27 38.58 74
8 05/03/2023 08:57:32 81.11, 84.59 67.58 05/03/2023 08:57:32 81.11, 84.70 67.59 1.97 0
9 05/03/2023 09:48:10 -81.14,-107.31 112.34 05/03/2023 09:46:58 -81.14,-107.26 112.37 0.96 72



Historial Predications of SNOs between METOP-C and LANDSAT-8
